{"data":{"norad_id":68163,"epoch":"2026-09-20T02:13:53.829696Z","epoch_age_seconds":91321,"freshness":"FRESH","line1":"1 68163U 26049X   26263.09298414  .00017757  00000+0  55087-3 0  9995","line2":"2 68163  97.2837 282.9784 0001546 101.9242 258.2174 15.33454751 29432","mean_motion":15.33454751,"eccentricity":0.0001546,"inclination_deg":97.2837,"raan_deg":282.9784,"arg_perigee_deg":101.9242,"mean_anomaly_deg":258.2174,"bstar":0.00055087,"rev_number":2943,"period_min":93.905607521901,"perigee_km":464.45613404655,"apogee_km":466.572190986,"semimajor_km":6843.6511625163,"source":"CELESTRAK","updated_at":"2026-09-20T09:00:43.796782Z"}}